Location: Unspecified
(0.0000°N, 0.0000°E)
Time: 13:42:11
(UTC+00:00)

Vanguard 2 - Pass Details

Date: 26 November 2019
Orbit: 553 x 2938 km, 32.9° (Epoch: 08 December)

Event Time Altitude Azimuth Distance (km) Brightness Sun altitude
Rises 01:27:16 0° 229° (SW) 5,930 12.0 -57.8°
Enters shadow 01:28:47 - 228° (SW) 5,599 11.9 -57.6°
Reaches altitude 10° 01:30:50 10° 226° (SW) 5,160 - -57.2°
Maximum altitude 01:47:13 71° 144° (SE) 3,038 - -54.0°
Exits shadow 01:48:59 68° 113° (ESE) 3,085 10.3 -53.6°
Drops below altitude 10° 02:04:32 10° 62° (ENE) 5,430 12.0 -50.5°
Sets 02:08:22 0° 61° (ENE) 6,244 12.4 -49.7°
